Location: Bismarck
(46.7731°N, 100.8200°W)
Time: 06:27:31
(UTC-06:00)

Amateur Radio Satellites - All Passes

Search period start: 07 December 2016 05:57
Search period end: 08 December 2016 05:57
Location: Bismarck, 46.7731°N, 100.8200°W

Satellite Date Start Highest point End Downlink Frequencies (MHz)
Time Altitude Azimuth
BEESAT 3 07 Dec 06:01:30 06:05:24 72° 309° (NW) 06:09:22 437.485
AIST 1 07 Dec 06:01:42 06:04:20 15° 66° (ENE) 06:06:55
ITAMSAT 1 07 Dec 06:02:26 06:04:33 13° 307° (NW) 06:06:40 435.822/435.867
BRITE-PL 07 Dec 06:02:41 06:08:08 80° 103° (ESE) 06:13:48 437.365/2234.400
CUTE-I 07 Dec 06:03:39 06:07:32 20° 91° (E) 06:11:25 437.470
HORYU 2 07 Dec 06:06:31 06:10:55 62° 101° (E) 06:15:18 437.375
YUBILEINY 07 Dec 06:16:01 06:24:46 61° 75° (ENE) 06:33:30 435.215
LilacSat-2 07 Dec 06:21:00 06:24:12 25° 95° (E) 06:27:22 437.200
NOAA 15 07 Dec 06:22:05 06:26:47 31° 96° (E) 06:31:27 137.62
NOAA 18 07 Dec 06:22:46 06:26:40 19° 91° (E) 06:30:33 137.9125
RS-15 07 Dec 06:25:53 06:34:55 27° 100° (E) 06:44:12 29.354- 29.394
CUBESAT XI-V 07 Dec 06:28:47 06:30:11 11° 273° (W) 06:31:35 437.345
Cubesat XI-IV 07 Dec 06:29:23 06:34:12 33° 96° (E) 06:38:57 437.490
BEESAT 2 07 Dec 06:33:09 06:37:05 73° 308° (NW) 06:41:06 435.950
Cosmos 2504 07 Dec 06:39:09 06:47:34 45° 70° (ENE) 06:55:33 435.465 / 435.565
HO-68 07 Dec 06:43:32 06:44:46 10° 82° (E) 06:46:00 435.675
SO-50 07 Dec 06:43:33 06:44:50 11° 252° (WSW) 06:46:07 436.795
Cosmos 2491 07 Dec 06:48:05 06:56:12 44° 87° (E) 07:04:18 435.465 / 435.565
CINEMA 3 07 Dec 06:50:02 06:51:46 12° 85° (E) 06:53:28 145.822/145.860
GOMX 1 07 Dec 07:10:49 07:16:11 59° 288° (WNW) 07:21:34 467.674
DOVE 4 07 Dec 07:15:07 07:20:28 76° 102° (ESE) 07:25:38 437.250
STRAND 1 07 Dec 07:15:46 07:20:55 79° 256° (WSW) 07:26:05 437.568
AO-7 07 Dec 07:25:36 07:30:41 18° 319° (NW) 07:35:47 29.400- 29.500
AIST 2 07 Dec 07:35:09 07:37:39 16° 111° (ESE) 07:40:10 435.215
AIST 1 07 Dec 07:38:00 07:42:22 61° 265° (W) 07:46:42
BEESAT 3 07 Dec 07:41:36 07:43:45 14° 329° (NNW) 07:45:54 437.485
BRITE-PL 07 Dec 07:42:23 07:46:02 19° 300° (WNW) 07:49:46 437.365/2234.400
CUTE-I 07 Dec 07:42:45 07:48:01 61° 289° (WNW) 07:53:15 437.470
HORYU 2 07 Dec 07:44:11 07:47:01 17° 300° (WNW) 07:49:50 437.375
LilacSat-2 07 Dec 07:55:16 07:58:27 26° 292° (WNW) 08:01:37 437.200
NOAA 15 07 Dec 08:01:45 08:06:37 40° 294° (WNW) 08:11:31 137.62
NOAA 18 07 Dec 08:02:19 08:07:51 68° 289° (WNW) 08:13:19 137.9125
Cubesat XI-IV 07 Dec 08:09:24 08:14:19 38° 294° (WNW) 08:19:12 437.490
CUTE 1.7 + AOD 2 07 Dec 08:10:38 08:14:39 41° 98° (E) 08:18:39 437.475
BEESAT 2 07 Dec 08:13:22 08:15:36 14° 329° (NNW) 08:17:51 435.950
YUBILEINY 07 Dec 08:13:29 08:21:04 34° 277° (W) 08:28:40 435.215
CINEMA 3 07 Dec 08:24:45 08:29:38 86° 282° (WNW) 08:34:15 145.822/145.860
HO-68 07 Dec 08:26:51 08:34:00 60° 102° (ESE) 08:41:06 435.675
AAUSAT CUBESAT 2 07 Dec 08:28:24 08:31:47 24° 94° (E) 08:35:09 437.432
CANX-2 07 Dec 08:28:48 08:33:02 76° 102° (ESE) 08:37:15 2200.000
Cosmos 2504 07 Dec 08:32:44 08:41:00 47° 273° (W) 08:48:52 435.465 / 435.565
RS-15 07 Dec 08:33:48 08:45:40 87° 123° (ESE) 08:58:05 29.354- 29.394
TIGRISAT 07 Dec 08:33:52 08:36:11 14° 59° (ENE) 08:38:30 435.000
CUBEBUG 2 07 Dec 08:34:26 08:38:24 31° 95° (E) 08:42:13 437.445
ANTELSAT 07 Dec 08:35:21 08:37:58 15° 59° (ENE) 08:40:32 437.575/2403.000
PRISM 07 Dec 08:41:57 08:45:56 58° 72° (ENE) 08:49:59 437.425
Cosmos 2491 07 Dec 08:44:37 08:52:59 47° 288° (WNW) 09:01:23 435.465 / 435.565
SEEDS 07 Dec 08:51:31 08:55:43 79° 103° (ESE) 08:59:55 437.485
GOMX 1 07 Dec 08:51:44 08:53:12 11° 307° (NW) 08:54:38 467.674
Oscar 11 07 Dec 08:52:39 08:55:38 18° 91° (E) 08:58:36 145.826/435.025
DOVE 4 07 Dec 08:53:57 08:57:31 19° 301° (WNW) 09:01:02 437.250
COMPASS 1 07 Dec 08:59:27 09:03:36 65° 101° (ESE) 09:07:44 437.405
STRAND 1 07 Dec 08:59:44 09:00:55 11° 274° (W) 09:02:06 437.568
AO-85 07 Dec 09:04:36 09:07:00 15° 30° (NNE) 09:09:21 145.980
AIST 2 07 Dec 09:11:33 09:15:39 64° 310° (NW) 09:19:48 435.215
UWE-3 07 Dec 09:13:58 09:18:12 52° 99° (E) 09:22:19 435.000/436.395/437.385
DELFI C3 07 Dec 09:17:16 09:18:29 11° 88° (E) 09:19:41 145.870
CUTE-I 07 Dec 09:25:41 09:27:01 11° 309° (NW) 09:28:21 437.470
Cosmos 2499 07 Dec 09:37:19 09:40:06 12° 45° (NE) 09:42:49 435.465 / 435.565
UNISAT 6 07 Dec 09:38:07 09:42:41 54° 72° (ENE) 09:47:12 437.425
JAS-2 07 Dec 09:43:16 09:47:34 21° 60° (ENE) 09:51:35 435.910
NOAA 18 07 Dec 09:45:08 09:47:31 13° 309° (NW) 09:49:54 137.9125
CUTE 1.7 + AOD 2 07 Dec 09:47:03 09:50:14 21° 295° (WNW) 09:53:25 437.475
ZACube-1 07 Dec 09:52:01 09:56:17 82° 102° (ESE) 10:00:27 437.345
CUSAT 1 07 Dec 09:52:31 09:55:28 58° 99° (E) 09:58:05 437.405
FUNcube-1 07 Dec 09:58:56 10:03:11 89° 77° (ENE) 10:07:20 145.935
NANOSAT C BR1 07 Dec 10:01:15 10:02:46 12° 58° (ENE) 10:04:18 145.865
AAUSAT CUBESAT 2 07 Dec 10:03:34 10:07:19 34° 291° (WNW) 10:11:04 437.432
CINEMA 3 07 Dec 10:03:47 10:05:57 13° 304° (WNW) 10:08:05 145.822/145.860
CANX-2 07 Dec 10:06:24 10:08:18 13° 300° (WNW) 10:10:13 2200.000
QB50P2 07 Dec 10:07:21 10:09:50 15° 61° (ENE) 10:12:21 145.880/145.840
TIGRISAT 07 Dec 10:07:32 10:12:15 85° 257° (WSW) 10:16:54 435.000
POLYITAN 1 07 Dec 10:07:58 10:10:21 15° 60° (ENE) 10:12:45 437.675
ANTELSAT 07 Dec 10:09:23 10:14:05 78° 257° (WSW) 10:18:45 437.575/2403.000
CUBEBUG 2 07 Dec 10:11:10 10:14:56 28° 294° (WNW) 10:18:36 437.445
HO-68 07 Dec 10:15:07 10:21:21 33° 302° (WNW) 10:27:35 435.675
PRISM 07 Dec 10:19:28 10:21:37 14° 270° (W) 10:23:47 437.425
QB50P1 07 Dec 10:19:50 10:22:49 19° 63° (ENE) 10:25:49 145.935-145.965
DUCHIFAT 1 07 Dec 10:21:19 10:24:04 17° 61° (ENE) 10:26:48 145.980
Oscar 11 07 Dec 10:27:53 10:32:03 48° 288° (WNW) 10:36:11 145.826/435.025
SEEDS 07 Dec 10:29:06 10:30:49 12° 301° (WNW) 10:32:32 437.485
COMPASS 1 07 Dec 10:36:24 10:38:39 14° 299° (WNW) 10:40:54 437.405
POPSAT HIP 1 07 Dec 10:40:39 10:44:20 28° 66° (ENE) 10:48:01 437.405
AO-85 07 Dec 10:44:07 10:48:09 79° 54° (NE) 10:52:01 145.980
RS-15 07 Dec 10:48:25 10:59:45 43° 333° (NNW) 11:11:24 29.354- 29.394
DELFI C3 07 Dec 10:49:46 10:53:44 69° 286° (WNW) 10:57:42 145.870
Cosmos 2491 07 Dec 10:50:20 10:52:38 11° 315° (NW) 10:54:56 435.465 / 435.565
DANDE 07 Dec 10:50:44 10:55:04 78° 98° (E) 10:58:22 436.750
UWE-3 07 Dec 10:51:22 10:54:16 18° 298° (WNW) 10:57:07 435.000/436.395/437.385
AIST 2 07 Dec 10:52:42 10:54:57 14° 331° (NNW) 10:57:13 435.215
GONETS M04 07 Dec 10:53:53 11:01:19 30° 63° (ENE) 11:08:42
HUMSAT D 07 Dec 11:07:38 11:11:44 86° 283° (WNW) 11:15:48 437.325/437.525
ESTCUBE 1 07 Dec 11:08:56 11:11:44 16° 90° (E) 11:14:31 437.505/2401.250
BUGSAT 1 07 Dec 11:11:49 11:15:06 22° 64° (ENE) 11:18:24 437.445
UNISAT 6 07 Dec 11:16:23 11:19:41 19° 269° (W) 11:22:59 437.425
JAS-2 07 Dec 11:25:52 11:32:14 74° 256° (WSW) 11:37:53 435.910
Cosmos 2499 07 Dec 11:27:37 11:35:58 48° 71° (ENE) 11:43:43 435.465 / 435.565
ZACube-1 07 Dec 11:30:17 11:31:55 12° 302° (WNW) 11:33:32 437.345
CUBEBUG 1 07 Dec 11:31:40 11:34:33 17° 90° (E) 11:37:25 437.445
NANOSAT C BR1 07 Dec 11:33:33 11:37:49 88° 247° (WSW) 11:42:08 145.865
FUNcube-1 07 Dec 11:37:33 11:38:44 11° 302° (WNW) 11:39:54 145.935
QB50P2 07 Dec 11:40:53 11:45:09 65° 259° (WSW) 11:49:26 145.880/145.840
POLYITAN 1 07 Dec 11:41:22 11:45:38 68° 257° (WSW) 11:49:56 437.675
VELOX 1 07 Dec 11:46:18 11:49:05 16° 90° (E) 11:51:50 145.980
TIGRISAT 07 Dec 11:48:53 11:49:36 10° 274° (W) 11:50:18 435.000
Oscar 19 07 Dec 11:53:22 11:56:59 20° 59° (ENE) 12:00:35 437.125/150
PCSat 07 Dec 11:53:56 11:59:15 62° 118° (ESE) 12:04:37 145.827
QB50P1 07 Dec 11:54:04 11:58:14 50° 260° (W) 12:02:26 145.935-145.965
DUCHIFAT 1 07 Dec 11:55:07 11:59:19 57° 260° (W) 12:03:32 145.980
DX 1 07 Dec 11:56:34 11:57:17 10° 87° (E) 11:57:59 434.975-435.025
Gurwin Techsat 1B 07 Dec 12:02:24 12:04:59 14° 54° (NE) 12:07:34 435.225
SPROUT 07 Dec 12:08:26 12:11:23 18° 91° (E) 12:14:18 437.525
POPSAT HIP 1 07 Dec 12:16:14 12:20:02 31° 264° (W) 12:23:52 437.405
AO-85 07 Dec 12:26:48 12:27:52 11° 251° (WSW) 12:28:56 145.980
BEESAT 3 07 Dec 12:38:41 12:42:00 24° 40° (NE) 12:45:18 437.485
ESTCUBE 1 07 Dec 12:44:28 12:48:56 60° 288° (WNW) 12:53:22 437.505/2401.250
AISAT 07 Dec 12:44:37 12:49:05 63° 102° (ESE) 12:53:31 437.250
BUGSAT 1 07 Dec 12:46:13 12:50:13 40° 262° (W) 12:54:17 437.445
GONETS M04 07 Dec 12:50:17 12:58:56 71° 266° (W) 13:07:35
AO-7 07 Dec 12:52:28 12:57:35 18° 41° (NE) 13:02:43 29.400- 29.500
RS-15 07 Dec 13:05:34 13:16:25 34° 7° (N) 13:27:18 29.354- 29.394
CUBEBUG 1 07 Dec 13:06:49 13:11:11 56° 288° (WNW) 13:15:31 437.445
BEESAT 2 07 Dec 13:11:00 13:14:23 25° 40° (NE) 13:17:44 435.950
50 SAT 07 Dec 13:11:21 13:14:55 73° 285° (WNW) 13:18:28 437.505
JAS-2 07 Dec 13:16:15 13:18:05 11° 273° (W) 13:19:54 435.910
Cosmos 2499 07 Dec 13:21:04 13:28:59 43° 274° (W) 13:36:25 435.465 / 435.565
VELOX 1 07 Dec 13:21:30 13:25:55 59° 288° (WNW) 13:30:18 145.980
TISAT 1 07 Dec 13:24:51 13:27:55 19° 92° (E) 13:30:59 437.305
DX 1 07 Dec 13:29:40 13:34:05 87° 289° (WNW) 13:38:29 434.975-435.025
Oscar 19 07 Dec 13:30:41 13:35:47 67° 258° (WSW) 13:40:57 437.125/150
UKube-1 07 Dec 13:33:46 13:38:08 79° 102° (ESE) 13:42:28 .
PCSat 07 Dec 13:38:25 13:43:03 28° 319° (NW) 13:47:44 145.827
Gurwin Techsat 1B 07 Dec 13:38:46 13:44:05 78° 73° (ENE) 13:49:25 435.225
SPROUT 07 Dec 13:43:26 13:47:35 49° 289° (WNW) 13:51:43 437.525
ITAMSAT 1 07 Dec 14:02:55 14:07:35 34° 65° (ENE) 14:12:15 435.822/435.867
SWISSCUBE 07 Dec 14:03:12 14:05:03 12° 88° (E) 14:06:53 437.505
BEESAT 07 Dec 14:07:09 14:08:55 12° 88° (E) 14:10:39 436.000
BEESAT 3 07 Dec 14:15:59 14:19:49 47° 240° (WSW) 14:23:39 437.485
AISAT 07 Dec 14:22:13 14:25:05 17° 300° (WNW) 14:27:55 437.250
M-CUBED/EXP-1 PRIME 07 Dec 14:25:50 14:28:40 16° 94° (E) 14:31:25 437.505
ITUPSAT 1 07 Dec 14:34:21 14:38:01 22° 93° (E) 14:41:39 437.325
AO-7 07 Dec 14:40:39 14:48:46 62° 64° (ENE) 14:56:57 29.400- 29.500
BEESAT 2 07 Dec 14:48:29 14:52:22 47° 240° (WSW) 14:56:14 435.950
GONETS M04 07 Dec 14:49:40 14:54:04 15° 288° (WNW) 14:58:31
TISAT 1 07 Dec 14:59:44 15:03:47 43° 290° (WNW) 15:07:46 437.305
DX 1 07 Dec 15:08:00 15:09:35 12° 303° (WNW) 15:11:09 434.975-435.025
UKube-1 07 Dec 15:11:29 15:13:35 13° 302° (WNW) 15:15:41 .
RS-15 07 Dec 15:20:11 15:32:22 56° 39° (NE) 15:44:17 29.354- 29.394
Gurwin Techsat 1B 07 Dec 15:21:31 15:24:39 16° 272° (W) 15:27:48 435.225
PCSat 07 Dec 15:27:38 15:28:24 10° 343° (NNW) 15:29:10 145.827
HORYU 2 07 Dec 15:34:08 15:35:34 11° 56° (NE) 15:36:59 437.375
O/OREOS (USA 219) 07 Dec 15:38:03 15:41:41 24° 103° (ESE) 15:45:18 437.305
SWISSCUBE 07 Dec 15:38:42 15:43:29 85° 287° (WNW) 15:48:13 437.505
BRITE-PL 07 Dec 15:40:45 15:43:23 16° 58° (ENE) 15:46:08 437.365/2234.400
ITAMSAT 1 07 Dec 15:42:14 15:47:01 36° 263° (W) 15:51:49 435.822/435.867
BEESAT 07 Dec 15:42:34 15:47:21 86° 283° (WNW) 15:52:06 436.000
AUBIESAT-1 07 Dec 15:45:13 15:49:51 75° 107° (ESE) 15:54:16 437.475
AIST 2 07 Dec 15:52:01 15:55:48 30° 42° (NE) 15:59:33 435.215
M-CUBED/EXP-1 PRIME 07 Dec 15:58:54 16:03:35 69° 293° (WNW) 16:08:04 437.505
NOAA 15 07 Dec 16:09:33 16:11:14 12° 52° (NE) 16:12:55 137.62
ITUPSAT 1 07 Dec 16:11:31 16:16:06 48° 290° (WNW) 16:20:40 437.325
Cubesat XI-IV 07 Dec 16:17:59 16:20:14 13° 53° (NE) 16:22:29 437.490
ISS 07 Dec 16:26:18 16:29:16 32° 142° (SE) 16:32:15 145.825
MOZHAYETS 4 07 Dec 16:33:59 16:38:35 85° 105° (ESE) 16:43:08
AO-7 07 Dec 16:34:37 16:41:59 35° 264° (W) 16:49:26 29.400- 29.500
CUBESAT XI-V 07 Dec 16:42:02 16:45:12 18° 90° (E) 16:48:21 437.345
GOMX 1 07 Dec 16:44:30 16:48:30 28° 64° (ENE) 16:52:44 467.674
DOVE 4 07 Dec 16:47:51 16:50:45 16° 57° (ENE) 16:53:44 437.250
KKS-1 07 Dec 16:52:05 16:56:31 55° 101° (E) 17:00:54 437.445
STARS 07 Dec 16:53:43 16:57:33 28° 95° (E) 17:01:20 437.465
Cosmos 2491 07 Dec 16:54:33 17:01:35 26° 61° (ENE) 17:08:33 435.465 / 435.565
LilacSat-2 07 Dec 17:05:54 17:08:49 21° 66° (ENE) 17:11:44 437.200
HORYU 2 07 Dec 17:06:53 17:11:22 82° 72° (ENE) 17:15:52 437.375
HO-68 07 Dec 17:15:09 17:18:48 15° 45° (NE) 17:22:28 435.675
O/OREOS (USA 219) 07 Dec 17:16:31 17:20:50 42° 301° (WNW) 17:25:11 437.305
BRITE-PL 07 Dec 17:16:54 17:21:14 70° 259° (WSW) 17:25:57 437.365/2234.400
SWISSCUBE 07 Dec 17:18:28 17:20:32 13° 304° (NW) 17:22:35 437.505
AUBIESAT-1 07 Dec 17:20:45 17:23:40 17° 307° (NW) 17:26:32 437.475
BEESAT 07 Dec 17:22:15 17:24:24 13° 304° (NW) 17:26:32 436.000
CUTE-I 07 Dec 17:27:51 17:32:54 44° 68° (ENE) 17:37:59 437.470
AIST 2 07 Dec 17:30:25 17:34:21 39° 242° (WSW) 17:38:17 435.215
YUBILEINY 07 Dec 17:30:26 17:33:51 13° 70° (ENE) 17:37:15 435.215
RS-15 07 Dec 17:33:13 17:45:12 60° 245° (WSW) 17:56:49 29.354- 29.394
M-CUBED/EXP-1 PRIME 07 Dec 17:35:29 17:37:10 12° 311° (NW) 17:38:49 437.505
NOAA 15 07 Dec 17:44:51 17:50:02 66° 72° (ENE) 17:55:15 137.62
NOAA 18 07 Dec 17:51:20 17:56:37 48° 67° (ENE) 18:01:58 137.9125
CINEMA 3 07 Dec 17:53:20 17:56:37 18° 60° (ENE) 17:59:56 145.822/145.860
Cubesat XI-IV 07 Dec 17:54:02 17:59:22 71° 72° (ENE) 18:04:45 437.490
ISS 07 Dec 18:02:25 18:05:40 55° 341° (NNW) 18:08:56 145.825
MOZHAYETS 4 07 Dec 18:12:57 18:15:06 13° 302° (WNW) 18:17:13
CUBESAT XI-V 07 Dec 18:18:21 18:22:56 57° 288° (WNW) 18:27:31 437.345
GOMX 1 07 Dec 18:22:01 18:26:24 39° 264° (W) 18:31:05 467.674
DOVE 4 07 Dec 18:22:47 18:27:40 85° 255° (WSW) 18:32:52 437.250
KKS-1 07 Dec 18:29:33 18:32:41 19° 299° (WNW) 18:35:48 437.445
STARS 07 Dec 18:29:56 18:33:55 33° 293° (WNW) 18:37:51 437.465
LilacSat-2 07 Dec 18:39:23 18:42:55 34° 263° (W) 18:46:28 437.200
HORYU 2 07 Dec 18:46:58 18:48:30 12° 272° (W) 18:50:03 437.375
Cosmos 2491 07 Dec 18:50:45 18:59:30 81° 264° (W) 19:08:11 435.465 / 435.565
PCSat 07 Dec 18:56:07 19:00:16 22° 36° (NE) 19:04:24 145.827
HO-68 07 Dec 18:58:07 19:05:06 59° 66° (ENE) 19:12:08 435.675
CUTE 1.7 + AOD 2 07 Dec 19:05:48 19:09:47 42° 71° (ENE) 19:13:45 437.475
CUTE-I 07 Dec 19:08:29 19:13:06 29° 266° (W) 19:17:45 437.470
ZACube-1 07 Dec 19:16:58 19:18:46 12° 58° (ENE) 19:20:33 437.345
SO-50 07 Dec 19:18:58 19:21:51 16° 110° (ESE) 19:24:43 436.795
YUBILEINY 07 Dec 19:20:12 19:28:43 63° 92° (E) 19:37:20 435.215
Cosmos 2504 07 Dec 19:20:52 19:28:12 34° 82° (E) 19:35:50 435.465 / 435.565
AAUSAT CUBESAT 2 07 Dec 19:21:24 19:24:40 23° 66° (ENE) 19:27:56 437.432
FUNcube-1 07 Dec 19:23:20 19:25:22 13° 59° (ENE) 19:27:23 145.935
STRAND 1 07 Dec 19:23:44 19:28:06 28° 94° (E) 19:32:27 437.568
CANX-2 07 Dec 19:23:57 19:28:09 76° 74° (ENE) 19:32:21 2200.000
NOAA 15 07 Dec 19:26:44 19:30:18 18° 270° (W) 19:33:53 137.62
CINEMA 3 07 Dec 19:28:12 19:33:10 73° 258° (WSW) 19:38:14 145.822/145.860
NOAA 18 07 Dec 19:32:47 19:37:30 28° 266° (W) 19:42:14 137.9125
CUBEBUG 2 07 Dec 19:34:32 19:38:57 40° 69° (ENE) 19:43:19 437.445
Cubesat XI-IV 07 Dec 19:36:25 19:39:59 18° 270° (W) 19:43:34 437.490
ISS 07 Dec 19:39:31 19:42:35 33° 1° (N) 19:45:38 145.825
SEEDS 07 Dec 19:45:34 19:49:44 77° 74° (ENE) 19:53:54 437.485
RS-15 07 Dec 19:49:27 19:54:46 14° 268° (W) 20:00:02 29.354- 29.394
Oscar 11 07 Dec 19:50:11 19:53:25 21° 64° (ENE) 19:56:38 145.826/435.025
COMPASS 1 07 Dec 19:52:33 19:56:37 62° 74° (ENE) 20:00:42 437.405
DOVE 4 07 Dec 20:04:36 20:06:13 11° 276° (W) 20:07:52 437.250
DELFI C3 07 Dec 20:06:37 20:07:28 11° 59° (ENE) 20:08:20 145.870
AIST 1 07 Dec 20:09:46 20:14:02 67° 96° (E) 20:18:24
UWE-3 07 Dec 20:12:55 20:17:30 61° 73° (ENE) 20:22:02 435.000/436.395/437.385
CUSAT 1 07 Dec 20:18:54 20:22:25 50° 77° (ENE) 20:27:01 437.405
HUMSAT D 07 Dec 20:29:01 20:30:18 11° 59° (ENE) 20:31:36 437.325/437.525
PCSat 07 Dec 20:38:57 20:44:26 90° 171° (S) 20:49:51 145.827
CUTE 1.7 + AOD 2 07 Dec 20:42:43 20:45:48 20° 268° (W) 20:48:55 437.475
HO-68 07 Dec 20:47:00 20:53:12 31° 266° (W) 20:59:28 435.675
Cosmos 2491 07 Dec 20:49:35 20:54:53 18° 286° (WNW) 21:00:10 435.465 / 435.565
ZACube-1 07 Dec 20:49:50 20:54:23 89° 65° (ENE) 20:58:53 437.345
AAUSAT CUBESAT 2 07 Dec 20:56:13 20:59:58 35° 263° (W) 21:03:46 437.432
FUNcube-1 07 Dec 20:56:27 21:00:59 85° 258° (WSW) 21:05:28 145.935
SO-50 07 Dec 20:57:00 21:01:46 77° 308° (NW) 21:06:29 436.795
STRAND 1 07 Dec 21:02:38 21:07:25 42° 293° (WNW) 21:12:11 437.568
CANX-2 07 Dec 21:03:16 21:04:32 11° 273° (W) 21:05:48 2200.000
CUBEBUG 2 07 Dec 21:11:40 21:15:39 26° 266° (W) 21:19:36 437.445
Cosmos 2504 07 Dec 21:12:42 21:21:04 62° 284° (WNW) 21:29:54 435.465 / 435.565
ISS 07 Dec 21:16:10 21:19:28 60° 21° (NNE) 21:22:45 145.825
YUBILEINY 07 Dec 21:18:26 21:26:07 34° 295° (WNW) 21:33:54 435.215
DANDE 07 Dec 21:23:50 21:26:37 57° 78° (ENE) 21:29:58 436.750
SEEDS 07 Dec 21:24:56 21:25:57 11° 273° (W) 21:26:59 437.485
Oscar 11 07 Dec 21:25:08 21:29:16 44° 262° (W) 21:33:25 145.826/435.025
COMPASS 1 07 Dec 21:30:35 21:32:34 13° 271° (W) 21:34:35 437.405
DELFI C3 07 Dec 21:37:44 21:41:39 83° 257° (WSW) 21:45:37 145.870
AIST 1 07 Dec 21:49:54 21:52:10 14° 295° (WNW) 21:54:26
UWE-3 07 Dec 21:51:24 21:54:20 16° 270° (W) 21:57:15 435.000/436.395/437.385
PRISM 07 Dec 21:55:26 21:59:34 63° 101° (E) 22:03:43 437.425
TIGRISAT 07 Dec 21:57:34 22:00:15 16° 90° (E) 22:02:54 435.000
ANTELSAT 07 Dec 21:59:20 22:02:18 17° 91° (E) 22:05:11 437.575/2403.000
HUMSAT D 07 Dec 22:01:04 22:05:17 87° 256° (WSW) 22:09:28 437.325/437.525
CUSAT 1 07 Dec 22:02:05 22:04:13 14° 267° (W) 22:06:36 437.405
ESTCUBE 1 07 Dec 22:11:05 22:14:28 22° 63° (ENE) 22:17:52 437.505/2401.250
AISAT 07 Dec 22:11:58 22:13:05 11° 56° (NE) 22:14:11 437.250
PCSat 07 Dec 22:24:07 22:27:02 15° 256° (WSW) 22:29:56 145.827
CUBEBUG 1 07 Dec 22:30:18 22:33:33 21° 63° (ENE) 22:36:49 437.445
ZACube-1 07 Dec 22:30:21 22:31:16 11° 273° (W) 22:32:10 437.345
SO-50 07 Dec 22:39:42 22:43:00 18° 329° (NNW) 22:46:15 436.795
VELOX 1 07 Dec 22:46:09 22:49:28 21° 63° (ENE) 22:52:48 145.980
ISS 07 Dec 22:52:55 22:55:48 28° 219° (SW) 22:58:40 145.825
DX 1 07 Dec 22:53:54 22:56:19 15° 59° (ENE) 22:58:45 434.975-435.025
UKube-1 07 Dec 22:57:51 22:59:36 12° 57° (ENE) 23:01:21 .
UNISAT 6 07 Dec 23:03:32 23:07:58 79° 103° (ESE) 23:12:17 437.425
SPROUT 07 Dec 23:04:35 23:07:47 21° 63° (ENE) 23:11:00 437.525
Cosmos 2504 07 Dec 23:11:46 23:16:40 16° 309° (NW) 23:21:40 435.465 / 435.565
NANOSAT C BR1 07 Dec 23:16:56 23:18:38 12° 88° (E) 23:20:20 145.865
QB50P2 07 Dec 23:23:54 23:26:40 17° 91° (E) 23:29:25 145.880/145.840
POLYITAN 1 07 Dec 23:24:28 23:27:06 16° 90° (E) 23:29:43 437.675
PRISM 07 Dec 23:32:02 23:34:24 15° 300° (WNW) 23:36:46 437.425
TIGRISAT 07 Dec 23:33:01 23:37:21 56° 288° (WNW) 23:41:33 435.000
ANTELSAT 07 Dec 23:35:03 23:39:20 51° 289° (WNW) 23:43:30 437.575/2403.000
QB50P1 07 Dec 23:36:23 23:39:37 21° 93° (E) 23:42:50 145.935-145.965
DUCHIFAT 1 07 Dec 23:37:03 23:40:01 18° 92° (E) 23:42:57 145.980
AISAT 07 Dec 23:44:20 23:48:45 79° 74° (ENE) 23:53:14 437.250
ESTCUBE 1 07 Dec 23:46:41 23:50:59 46° 261° (W) 23:55:19 437.505/2401.250
50 SAT 07 Dec 23:48:59 23:52:28 69° 74° (ENE) 23:55:59 437.505
POPSAT HIP 1 07 Dec 23:57:40 00:01:33 33° 97° (E) 00:05:22 437.405
GONETS M04 07 Dec 23:59:49 00:06:55 29° 81° (E) 00:14:00
CUBEBUG 1 08 Dec 00:05:18 00:09:31 47° 261° (W) 00:13:47 437.445
O/OREOS (USA 219) 08 Dec 00:06:31 00:08:24 12° 43° (NE) 00:10:17 437.305
Cosmos 2499 08 Dec 00:07:02 00:14:39 36° 84° (E) 00:22:28 435.465 / 435.565
JAS-2 08 Dec 00:16:25 00:21:37 74° 103° (ESE) 00:27:04 435.910
TISAT 1 08 Dec 00:19:05 00:22:22 22° 64° (ENE) 00:25:40 437.305
VELOX 1 08 Dec 00:21:22 00:25:37 46° 261° (W) 00:29:56 145.980
BUGSAT 1 08 Dec 00:25:23 00:28:46 23° 94° (E) 00:32:06 437.445
DX 1 08 Dec 00:27:38 00:31:58 71° 256° (WSW) 00:36:22 434.975-435.025
UKube-1 08 Dec 00:30:40 00:34:59 86° 255° (WSW) 00:39:21 .
SPROUT 08 Dec 00:39:18 00:43:25 45° 261° (W) 00:47:36 437.525
UNISAT 6 08 Dec 00:41:57 00:44:03 13° 302° (WNW) 00:46:07 437.425
NANOSAT C BR1 08 Dec 00:50:38 00:54:51 71° 287° (WNW) 00:59:02 145.865
QB50P2 08 Dec 00:58:38 01:02:46 51° 288° (WNW) 01:06:51 145.880/145.840
POLYITAN 1 08 Dec 00:59:06 01:03:14 53° 288° (WNW) 01:07:21 437.675
AUBIESAT-1 08 Dec 01:00:18 01:03:22 19° 55° (NE) 01:06:35 437.475
AO-85 08 Dec 01:02:44 01:05:11 14° 110° (ESE) 01:07:34 145.980
QB50P1 08 Dec 01:11:34 01:15:34 40° 290° (WNW) 01:19:30 145.935-145.965
SWISSCUBE 08 Dec 01:11:36 01:15:10 21° 61° (ENE) 01:18:43 437.505
DUCHIFAT 1 08 Dec 01:11:54 01:15:57 46° 289° (WNW) 01:19:57 145.980
M-CUBED/EXP-1 PRIME 08 Dec 01:13:33 01:17:15 29° 59° (ENE) 01:21:09 437.505
BEESAT 08 Dec 01:15:28 01:18:59 21° 61° (ENE) 01:22:30 436.000
AISAT 08 Dec 01:24:09 01:25:48 12° 272° (W) 01:27:27 437.250
POPSAT HIP 1 08 Dec 01:33:40 01:37:12 26° 294° (WNW) 01:40:41 437.405
PHONESAT 2.4 08 Dec 01:33:51 01:35:50 19° 172° (S) 01:37:48 2401.200-2431.200
Oscar 19 08 Dec 01:39:23 01:44:08 34° 96° (E) 01:48:50 437.125/150
ITUPSAT 1 08 Dec 01:43:33 01:47:52 35° 67° (ENE) 01:52:13 437.325
O/OREOS (USA 219) 08 Dec 01:44:08 01:48:39 75° 64° (ENE) 01:53:06 437.305
Gurwin Techsat 1B 08 Dec 01:52:36 01:56:55 25° 93° (E) 02:01:13 435.225
TISAT 1 08 Dec 01:53:46 01:57:46 40° 262° (W) 02:01:49 437.305
GONETS M04 08 Dec 01:54:21 02:03:01 69° 283° (WNW) 02:11:44
Cosmos 2499 08 Dec 01:58:50 02:07:22 60° 285° (WNW) 02:16:12 435.465 / 435.565
BUGSAT 1 08 Dec 02:00:23 02:04:14 35° 291° (WNW) 02:08:01 437.445
JAS-2 08 Dec 02:02:54 02:06:13 17° 302° (WNW) 02:09:35 435.910
MOZHAYETS 4 08 Dec 02:03:44 02:06:20 15° 59° (ENE) 02:08:57
SO-50 08 Dec 02:06:33 02:08:04 11° 19° (NNE) 02:09:34 436.795
KKS-1 08 Dec 02:20:56 02:21:15 10° 55° (NE) 02:21:34 437.445
AUBIESAT-1 08 Dec 02:33:09 02:37:19 58° 254° (WSW) 02:41:47 437.475
AO-85 08 Dec 02:40:13 02:45:06 87° 311° (NW) 02:49:37 145.980
AO-7 08 Dec 02:41:06 02:45:24 15° 85° (E) 02:49:41 29.400- 29.500
M-CUBED/EXP-1 PRIME 08 Dec 02:47:44 02:51:35 34° 259° (WSW) 02:55:43 437.505
SWISSCUBE 08 Dec 02:47:56 02:52:35 53° 259° (W) 02:57:17 437.505
BEESAT 08 Dec 02:51:43 02:56:23 55° 259° (W) 03:01:05 436.000
PHONESAT 2.4 08 Dec 03:08:35 03:10:33 19° 189° (S) 03:12:31 2401.200-2431.200
Oscar 19 08 Dec 03:18:44 03:23:26 35° 294° (WNW) 03:28:07 437.125/150
ITUPSAT 1 08 Dec 03:21:33 03:25:44 30° 264° (W) 03:29:57 437.325
O/OREOS (USA 219) 08 Dec 03:25:27 03:27:24 13° 262° (W) 03:29:21 437.305
Gurwin Techsat 1B 08 Dec 03:31:59 03:37:09 50° 291° (WNW) 03:42:15 435.225
MOZHAYETS 4 08 Dec 03:38:22 03:42:57 74° 257° (WSW) 03:47:33
SO-50 08 Dec 03:45:42 03:49:54 35° 42° (NE) 03:54:02 436.795
CUBESAT XI-V 08 Dec 03:47:59 03:51:40 24° 64° (ENE) 03:55:22 437.345
ITAMSAT 1 08 Dec 03:51:27 03:56:38 64° 102° (ESE) 04:01:44 435.822/435.867
KKS-1 08 Dec 03:52:31 03:56:59 72° 73° (ENE) 04:01:29 437.445
STARS 08 Dec 03:52:46 03:56:49 36° 68° (ENE) 04:00:53 437.465
GONETS M04 08 Dec 03:56:33 04:01:47 17° 307° (NW) 04:07:03
Cosmos 2499 08 Dec 03:57:56 04:02:44 15° 310° (NW) 04:07:35 435.465 / 435.565
BEESAT 3 08 Dec 04:10:29 04:12:19 13° 110° (ESE) 04:14:10 437.485
AO-85 08 Dec 04:22:49 04:26:06 19° 325° (NW) 04:29:13 145.980
AO-7 08 Dec 04:31:19 04:39:42 70° 106° (ESE) 04:48:02 29.400- 29.500
BEESAT 2 08 Dec 04:44:14 04:46:17 14° 111° (ESE) 04:48:21 435.950
HORYU 2 08 Dec 04:56:48 04:58:39 12° 89° (E) 05:00:28 437.375
Cosmos 2504 08 Dec 05:10:05 05:15:17 16° 52° (NE) 05:20:20 435.465 / 435.565
BRITE-PL 08 Dec 05:17:48 05:22:47 35° 95° (E) 05:27:54 437.365/2234.400
CUBESAT XI-V 08 Dec 05:24:28 05:28:49 42° 262° (W) 05:33:12 437.345
SO-50 08 Dec 05:26:14 05:30:24 37° 242° (WSW) 05:34:29 436.795
YUBILEINY 08 Dec 05:26:43 05:34:46 37° 67° (ENE) 05:42:45 435.215
STARS 08 Dec 05:29:31 05:33:13 26° 265° (W) 05:36:58 437.465
ITAMSAT 1 08 Dec 05:31:52 05:35:38 21° 301° (WNW) 05:39:23 435.822/435.867
KKS-1 08 Dec 05:31:54 05:34:03 13° 271° (W) 05:36:13 437.445
CUTE-I 08 Dec 05:43:34 05:46:03 13° 87° (E) 05:48:30 437.470
BEESAT 3 08 Dec 05:45:30 05:49:24 71° 308° (NW) 05:53:22 437.485
